Location: Allos
(44.2333°N, 6.6333°E)
Time: 05:17:12
(UTC+00:00)

OE (NEXTSAT) - Pass Details

Date: 01 December 2020
Orbit: 428 x 435 km, 46.0° (Epoch: 24 January)

Event Time Altitude Azimuth Distance (km) Brightness Sun altitude
Rises 16:50:49 0° 276° (W) 2,396 9.3 -9.7°
Reaches altitude 10° 16:52:57 10° 280° (W) 1,528 8.1 -10.1°
Maximum altitude 16:56:23 62° 2° (N) 486 4.4 -10.6°
Enters shadow 16:58:54 17° 81° (E) 1,173 5.9 -11.0°
